• In Moldova, Republic
  • List of Countries
  • For 7 days
  • Water Temperature
  • Satellite Maps
  • Weather Map
  • Weather Widgets
  • user-avatar
    Login

    Hourly Weather Sumgayit

    Today, 28 May, Sunday

    Time Temperature Precipitation Wind Pressure Humidity
    00:00 +19°C° 0.1 mm 1 mps 737 mmHg 76%
    01:00 +17°C° 0 mm 2 mps 737 mmHg 78%
    02:00 +17°C° 0 mm 2 mps 737 mmHg 80%
    03:00 +16°C° 0 mm 2 mps 737 mmHg 81%
    04:00 +17°C° 0 mm 2 mps 737 mmHg 79%
    05:00 +17°C° 0 mm 2 mps 738 mmHg 76%
    06:00 +17°C° 0 mm 2 mps 738 mmHg 74%
    07:00 +19°C° 0 mm 2 mps 738 mmHg 67%
    08:00 +20°C° 0 mm 2 mps 738 mmHg 60%
    09:00 +23°C° 0 mm 2 mps 738 mmHg 53%
    10:00 +24°C° 0 mm 3 mps 738 mmHg 49%
    11:00 +25°C° 0 mm 3 mps 738 mmHg 45%
    12:00 +26°C° 0 mm 4 mps 738 mmHg 41%
    13:00 +26°C° 0 mm 4 mps 738 mmHg 42%
    14:00 +26°C° 0 mm 5 mps 738 mmHg 44%
    15:00 +26°C° 0 mm 5 mps 737 mmHg 46%
    16:00 +23°C° 0 mm 5 mps 737 mmHg 49%
    17:00 +22°C° 0 mm 5 mps 738 mmHg 53%
    18:00 +21°C° 0 mm 5 mps 738 mmHg 56%
    19:00 +20°C° 0 mm 4 mps 738 mmHg 57%
    20:00 +19°C° 0 mm 4 mps 739 mmHg 59%
    21:00 +19°C° 0 mm 4 mps 739 mmHg 61%
    22:00 +19°C° 0 mm 3 mps 739 mmHg 60%
    23:00 +19°C° 0 mm 3 mps 740 mmHg 60%

    Tomorrow, 29 May, Monday

    Time Temperature Precipitation Wind Pressure Humidity
    00:00 +18°C° 0 mm 2 mps 740 mmHg 60%
    01:00 +18°C° 0 mm 2 mps 740 mmHg 60%
    02:00 +18°C° 0 mm 2 mps 740 mmHg 60%
    03:00 +18°C° 0 mm 2 mps 741 mmHg 60%
    04:00 +18°C° 0 mm 2 mps 741 mmHg 57%
    05:00 +19°C° 0 mm 2 mps 741 mmHg 55%
    06:00 +20°C° 0 mm 2 mps 742 mmHg 52%
    07:00 +21°C° 0 mm 3 mps 742 mmHg 50%
    08:00 +22°C° 0 mm 4 mps 743 mmHg 48%
    09:00 +25°C° 0 mm 4 mps 743 mmHg 46%
    10:00 +25°C° 0 mm 5 mps 743 mmHg 45%
    11:00 +26°C° 0 mm 5 mps 743 mmHg 44%
    12:00 +26°C° 0 mm 6 mps 743 mmHg 44%
    13:00 +26°C° 0 mm 6 mps 743 mmHg 45%
    14:00 +26°C° 0 mm 6 mps 743 mmHg 46%
    15:00 +26°C° 0 mm 7 mps 743 mmHg 47%
    16:00 +24°C° 0 mm 6 mps 743 mmHg 52%
    17:00 +22°C° 0 mm 6 mps 743 mmHg 56%
    18:00 +21°C° 0 mm 6 mps 743 mmHg 61%
    19:00 +20°C° 0 mm 5 mps 743 mmHg 64%
    20:00 +20°C° 0 mm 5 mps 743 mmHg 67%
    21:00 +19°C° 0 mm 4 mps 744 mmHg 70%
    22:00 +18°C° 0 mm 4 mps 744 mmHg 70%
    23:00 +18°C° 0 mm 3 mps 743 mmHg 70%

    Day after tomorrow, 30 May, Tuesday

    Time Temperature Precipitation Wind Pressure Humidity
    00:00 +18°C° 0 mm 2 mps 743 mmHg 70%
    01:00 +18°C° 0 mm 2 mps 743 mmHg 70%
    02:00 +17°C° 0 mm 2 mps 743 mmHg 69%
    03:00 +17°C° 0 mm 2 mps 742 mmHg 69%
    04:00 +18°C° 0 mm 2 mps 742 mmHg 65%
    05:00 +18°C° 0 mm 2 mps 742 mmHg 61%
    06:00 +19°C° 0 mm 2 mps 742 mmHg 57%
    07:00 +20°C° 0 mm 3 mps 742 mmHg 53%
    08:00 +22°C° 0 mm 3 mps 742 mmHg 49%
    09:00 +23°C° 0 mm 4 mps 741 mmHg 44%
    10:00 +25°C° 0 mm 5 mps 741 mmHg 42%
    11:00 +27°C° 0 mm 5 mps 741 mmHg 39%
    12:00 +28°C° 0 mm 6 mps 740 mmHg 36%
    13:00 +28°C° 0 mm 6 mps 740 mmHg 35%
    14:00 +29°C° 0 mm 6 mps 739 mmHg 35%
    15:00 +29°C° 0 mm 6 mps 739 mmHg 35%
    16:00 +28°C° 0 mm 6 mps 738 mmHg 37%
    17:00 +27°C° 0 mm 5 mps 738 mmHg 40%
    18:00 +26°C° 0 mm 5 mps 738 mmHg 42%
    19:00 +25°C° 0 mm 4 mps 738 mmHg 47%
    20:00 +22°C° 0 mm 3 mps 739 mmHg 51%
    21:00 +21°C° 0 mm 2 mps 739 mmHg 56%
    22:00 +21°C° 0 mm 2 mps 739 mmHg 58%
    23:00 +20°C° 0 mm 2 mps 738 mmHg 60%

    31 May, Wednesday

    Time Temperature Precipitation Wind Pressure Humidity
    00:00 +20°C° 0 mm 2 mps 738 mmHg 62%
    01:00 +19°C° 0 mm 2 mps 738 mmHg 62%
    02:00 +19°C° 0 mm 3 mps 738 mmHg 63%
    03:00 +19°C° 0 mm 3 mps 738 mmHg 64%
    04:00 +19°C° 0 mm 3 mps 738 mmHg 62%
    05:00 +20°C° 0 mm 3 mps 738 mmHg 59%
    06:00 +21°C° 0 mm 4 mps 738 mmHg 57%
    07:00 +22°C° 0 mm 4 mps 739 mmHg 52%
    08:00 +25°C° 0 mm 4 mps 739 mmHg 47%
    09:00 +26°C° 0 mm 4 mps 739 mmHg 42%
    10:00 +27°C° 0 mm 4 mps 739 mmHg 39%
    11:00 +28°C° 0 mm 4 mps 739 mmHg 37%
    12:00 +29°C° 0 mm 5 mps 738 mmHg 34%
    13:00 +28°C° 0 mm 5 mps 738 mmHg 35%
    14:00 +28°C° 0 mm 6 mps 738 mmHg 35%
    15:00 +28°C° 0 mm 6 mps 737 mmHg 36%
    16:00 +27°C° 0 mm 6 mps 737 mmHg 38%
    17:00 +26°C° 0 mm 6 mps 737 mmHg 41%
    18:00 +24°C° 0 mm 6 mps 737 mmHg 43%
    19:00 +23°C° 0 mm 6 mps 737 mmHg 46%
    20:00 +22°C° 0 mm 5 mps 737 mmHg 48%
    21:00 +21°C° 0 mm 5 mps 737 mmHg 50%
    22:00 +21°C° 0 mm 4 mps 737 mmHg 51%
    23:00 +21°C° 0 mm 4 mps 737 mmHg 51%

    1 June, Thursday

    Time Temperature Precipitation Wind Pressure Humidity
    00:00 +20°C° 0 mm 4 mps 736 mmHg 52%
    01:00 +20°C° 0 mm 4 mps 736 mmHg 54%
    02:00 +20°C° 0 mm 4 mps 736 mmHg 56%
    03:00 +19°C° 0 mm 3 mps 736 mmHg 57%
    04:00 +20°C° 0.1 mm 3 mps 736 mmHg 56%
    05:00 +20°C° 0.1 mm 3 mps 736 mmHg 55%
    06:00 +21°C° 0.1 mm 3 mps 736 mmHg 54%
    07:00 +22°C° 0.1 mm 3 mps 736 mmHg 49%
    08:00 +25°C° 0.1 mm 3 mps 736 mmHg 45%
    09:00 +26°C° 0.1 mm 3 mps 736 mmHg 40%
    10:00 +27°C° 0 mm 3 mps 735 mmHg 38%
    11:00 +28°C° 0 mm 4 mps 735 mmHg 36%
    12:00 +29°C° 0 mm 4 mps 735 mmHg 33%
    13:00 +28°C° 0 mm 5 mps 735 mmHg 35%
    14:00 +28°C° 0 mm 6 mps 734 mmHg 37%
    15:00 +28°C° 0 mm 7 mps 734 mmHg 38%
    16:00 +27°C° 0 mm 7 mps 734 mmHg 41%
    17:00 +26°C° 0 mm 7 mps 734 mmHg 43%
    18:00 +24°C° 0 mm 7 mps 734 mmHg 46%
    19:00 +23°C° 0 mm 6 mps 735 mmHg 47%
    20:00 +23°C° 0 mm 6 mps 735 mmHg 49%
    21:00 +22°C° 0 mm 5 mps 735 mmHg 50%
    22:00 +21°C° 0 mm 4 mps 735 mmHg 51%
    23:00 +21°C° 0 mm 4 mps 735 mmHg 51%

    2 June, Friday

    Time Temperature Precipitation Wind Pressure Humidity
    00:00 +21°C° 0 mm 4 mps 735 mmHg 52%
    01:00 +21°C° 0.3 mm 3 mps 735 mmHg 53%
    02:00 +20°C° 0.3 mm 3 mps 735 mmHg 53%
    03:00 +20°C° 0.3 mm 3 mps 735 mmHg 54%
    04:00 +21°C° 0 mm 3 mps 735 mmHg 51%
    05:00 +21°C° 0 mm 3 mps 735 mmHg 48%
    06:00 +22°C° 0 mm 3 mps 736 mmHg 45%
    07:00 +24°C° 0 mm 3 mps 736 mmHg 43%
    08:00 +25°C° 0 mm 3 mps 736 mmHg 40%
    09:00 +27°C° 0 mm 3 mps 736 mmHg 37%
    10:00 +28°C° 0 mm 3 mps 736 mmHg 35%
    11:00 +28°C° 0 mm 3 mps 736 mmHg 33%
    12:00 +29°C° 0 mm 4 mps 736 mmHg 31%
    13:00 +29°C° 0 mm 5 mps 736 mmHg 33%
    14:00 +29°C° 0 mm 5 mps 736 mmHg 34%
    15:00 +28°C° 0 mm 6 mps 736 mmHg 36%
    16:00 +28°C° 0 mm 6 mps 736 mmHg 39%
    17:00 +27°C° 0 mm 6 mps 737 mmHg 42%
    18:00 +26°C° 0 mm 6 mps 737 mmHg 45%
    19:00 +25°C° 0 mm 5 mps 737 mmHg 48%
    20:00 +23°C° 0 mm 4 mps 737 mmHg 51%
    21:00 +24°C° 0 mm 3 mps 738 mmHg 53%
    22:00 +22°C° 0 mm 3 mps 737 mmHg 54%
    23:00 +23°C° 0 mm 2 mps 737 mmHg 55%
    Show more